Погода в Вировитице

Хорватия     45°49′56″N   17°23′12″E
темп.,
°C
ветер,
м/с
пор.,
м/с
влажн.,
%
обл.,
%
осадки,
мм/ч
давл.,
гПа
погр.,
м
15 августа, пн
пн1523:00+20юз22653 0.0 100811
02:00+19юз11674 0.0 100811
05:00+18юз11703 0.0 100711
08:00+23ююз11535 0.0 1008163
11:00+30з2334100 0.0 10081898
14:00+32зюз4423100 0.0 10062761
17:00+32зюз242435 0.0 10053015
20:00+25ююз334345 0.0 100537
16 августа, вт
вт1623:00+23юз385349 0.1 1008152
02:00+20зюз41258100 0.2 1008280
05:00+19зюз3867100 0.0 1009148
08:00+21зюз58600 0.0 1010336
11:00+27з46446 0.0 10111214
14:00+31зсз45335 0.0 10102072
17:00+31зсз343266 0.0 10092001
20:00+25з11485 0.0 101011
17 августа, ср
ср1723:00+22ююз22550 0.0 101112
02:00+21зюз22590 0.0 101213
05:00+20зюз22650 0.0 101129
08:00+24з24550 0.0 1012220
11:00+31з33343 0.0 10121350
14:00+34зюз44240 0.0 10112664
17:00+34з45230 0.0 10102887
20:00+27ююз22394 0.0 101012
18 августа, чт
чт1823:00+24юз364438 0.0 101186
02:00+23юз41252100 0.0 1011266
05:00+23юз49520 0.0 1011206
08:00+27юз38423 0.0 1011335
11:00+33з47305 0.0 10111441
14:00+37з57235 0.0 10092331
17:00+30юз81041100 0.0 1009492
20:00+27юз334696 0.0 100937
19 августа, пт
пт1923:00+23юз115215 0.0 100911
02:00+21юз11595 0.0 100911
05:00+20зсз226689 0.0 101018
08:00+21з2476100 0.0 1012239
11:00+27зсз225498 0.0 1011625
14:00+31зсз3539100 0.0 10091293
17:00+28ююз3104554 0.2 10081490
20:00+23ююз22560 0.2 100833